Flag for U.S.A. Weather past 2 weeks in Tucson, Arizona, U.S.A.

Now
87 °F

Sunny.


Feels Like: 88 °F
Forecast: 71 / 93 °F
Wind: 5 mph from North

Location: Davis-Monthan Air Force Base

Current Time: Aug 27, 2014 at 12:18:17 PM

Latest Report: Aug 27, 2014 at 11:58 AM


Visibility: 10 mi

Pressure: 29.98 "Hg

Humidity: 42%

Dew point: 61 °F

Location of TucsonLocation

Historic Weather in Tucson — Graph

°F

Tucson temperature yesterday

Maximum temperature yesterday: 88 °F (at 11:58 AM)
Minimum temperature yesterday: 74 °F (at 4:58 AM)
Average temperature yesterday: 79 °F

Past Weeks' High & Low Weather Summary

 TemperatureHumidityPressure
High97 °F (Aug 17, 4:58 PM)89% (Aug 12, 2:58 PM)30.07 "Hg (Aug 12, 2:58 PM)
Low68 °F (Aug 22, 5:58 AM)24% (Aug 24, 4:58 PM)29.74 "Hg (Aug 24, 5:58 PM)
Average80 °F57%29.88 "Hg
* Reported Aug 12 10:58 AM — Aug 27 10:58 AM, Tucson, Weather by CustomWeather, © 2014

Note: Actual official high and low records may vary slightly from our data, if they occured in-between our weather recording intervals... More about our weather records

Advertising

Tucson weather history for previous 24 hours

 ConditionsComfort  
Time TempWeatherWind HumidityBarometerVisibility
10:58 AM
Aug 27
86 °FSunny.2 mph48%29.99 "Hg10 mi
9:58 AM83 °FSunny.1 mph55%30.01 "Hg10 mi
8:58 AM81 °FSunny.5 mph60%30.01 "Hg10 mi
7:58 AM77 °FSunny.5 mph68%30.00 "Hg10 mi
6:58 AM74 °FSunny.6 mph78%29.99 "Hg10 mi
5:58 AM72 °FSunny.5 mph80%29.99 "Hg10 mi
4:58 AM72 °FClear.3 mph81%29.95 "Hg10 mi
3:58 AM72 °FClear.5 mph79%29.95 "Hg10 mi
2:58 AM74 °FClear.3 mph74%29.94 "Hg10 mi
1:58 AM74 °FClear.6 mph75%29.93 "Hg10 mi
12:58 AM74 °FClear.5 mph74%29.94 "Hg10 mi
11:58 PM
Aug 26
75 °FClear.1 mph70%29.94 "Hg10 mi
10:58 PM75 °FClear.5 mph70%29.94 "Hg10 mi
9:58 PM77 °FClear.7 mph65%29.93 "Hg10 mi
8:58 PM78 °FClear.5 mph63%29.92 "Hg10 mi
7:58 PM79 °FPassing clouds.5 mph63%29.92 "Hg10 mi
6:58 PM78 °FPassing clouds.7 mph64%29.90 "Hg10 mi
5:58 PM79 °FSunny.3 mph62%29.90 "Hg10 mi
4:58 PM81 °FSunny.6 mph54%29.89 "Hg10 mi
3:58 PM83 °FThundershowers. Sunny.8 mph54%29.87 "Hg10 mi
2:58 PM84 °FThunderstorms. Passing clouds.9 mph50%29.87 "Hg10 mi
1:58 PM87 °FThundershowers. Sunny.6 mph41%29.88 "Hg10 mi
12:58 PM87 °FScattered clouds.3 mph42%29.90 "Hg10 mi
Weather by CustomWeather, © 2014

See weather overviewHow to use our weather pages